Date,TemperatureHighF,TemperatureAvgF,TemperatureLowF,DewpointHighF,DewpointAvgF,DewpointLowF,HumidityHigh,HumidityAvg,HumidityLow,PressureMaxIn,PressureMinIn,WindSpeedMaxMPH,WindSpeedAvgMPH,GustSpeedMaxMPH,PrecipitationSumIn
2013-1-1,21.2,7.3,-2.6,-5.5,-15.2,-20.9,40,34,26,17.72,17.72,8,1,8,0.00
2013-1-2,29.7,19.2,4.1,25.0,1.0,-19.2,87,46,32,17.72,17.72,12,2,12,0.00
2013-1-3,30.2,19.2,7.5,21.9,4.5,-6.8,75,53,35,17.72,17.72,18,3,18,0.00
2013-1-4,39.2,22.7,9.3,17.3,5.7,-5.3,79,49,29,17.72,17.72,12,2,12,0.00
2013-1-5,41.7,28.3,18.5,27.4,15.1,6.3,86,59,39,17.72,17.72,20,4,20,0.08
2013-1-6,33.3,20.8,13.3,14.3,5.1,-3.6,73,51,32,17.72,17.72,13,3,17,0.00
2013-1-7,47.7,32.4,21.2,21.8,13.3,7.4,85,48,25,17.72,17.72,19,4,19,0.00
2013-1-8,50.4,34.8,23.7,26.1,20.4,15.6,92,60,27,17.72,17.72,13,3,13,0.00
2013-1-9,47.7,35.4,27.0,32.5,20.9,13.8,94,59,27,17.72,17.72,16,1,16,0.00
2013-1-10,42.8,35.1,27.1,37.6,24.9,10.4,96,70,28,17.72,17.72,10,2,10,0.00
2013-1-11,53.2,45.7,37.9,50.0,38.8,30.3,96,80,43,17.72,17.72,19,4,19,0.00
2013-1-14,35.8,19.9,11.5,0.2,-4.5,-10.6,48,35,22,29.23,29.23,9,1,9,0.00
2013-1-15,39.4,20.9,9.3,12.7,-2.4,-6.4,73,37,21,29.24,28.91,13,2,13,0.00
2013-1-16,52.0,33.8,19.9,22.8,10.5,-3.7,66,39,26,29.06,28.73,18,4,18,0.00
2013-1-17,41.2,25.3,14.4,17.6,4.7,-4.6,73,44,21,29.32,29.06,9,2,10,0.00
2013-1-18,56.7,40.6,21.2,18.5,15.0,9.2,70,38,20,29.21,28.73,26,7,26,0.00
2013-1-19,53.4,39.8,16.2,19.7,13.2,-7.9,49,34,21,29.15,28.67,27,6,27,0.00
2013-1-20,16.9,11.9,6.1,-2.4,-8.1,-12.5,45,40,34,29.26,29.15,17,4,17,0.00
2013-1-21,10.9,3.8,-3.8,-6.7,-13.3,-20.2,44,44,44,29.29,29.18,22,5,22,0.00
2013-1-22,22.5,10.7,0.7,-5.0,-12.7,-16.3,44,34,25,29.26,29.15,10,2,10,0.00
2013-1-23,29.1,15.7,3.7,2.8,-8.2,-18.5,45,33,31,29.38,29.03,17,4,17,0.00
2013-1-24,19.9,10.7,1.2,-9.5,-15.0,-20.6,34,30,23,29.44,29.06,13,5,13,0.00
2013-1-25,39.2,24.0,12.2,11.3,0.3,-10.4,59,36,25,29.15,28.94,20,4,20,0.00
2013-1-26,38.7,22.0,6.6,2.0,-6.5,-15.4,35,28,21,29.21,29.00,14,4,14,0.00
2013-1-27,41.2,35.4,30.4,39.9,26.6,-1.2,96,76,25,29.00,28.61,11,2,13,0.08
2013-1-28,52.2,40.6,37.4,50.2,38.9,33.7,96,93,82,28.76,28.44,10,2,10,0.08
2013-1-29,61.0,39.3,31.3,58.3,32.4,22.0,94,77,58,28.56,28.38,19,4,19,0.00
2013-1-30,31.1,22.6,12.4,23.9,9.5,-5.1,84,58,39,28.73,28.38,27,7,27,0.00
2013-1-31,12.6,5.0,-2.6,-4.9,-11.7,-18.6,45,45,45,29.23,28.73,24,6,24,0.00
2013-2-1,24.4,7.2,-9.8,3.3,-11.4,-25.5,46,42,26,29.26,28.88,15,4,15,0.00
2013-2-2,32.2,21.3,15.1,23.9,3.3,-7.6,81,47,27,29.06,28.85,15,4,15,0.00
2013-2-3,37.8,26.3,15.8,14.1,3.2,-3.8,55,38,23,29.03,28.64,27,5,27,0.00
2013-2-4,35.4,24.4,15.4,15.6,7.9,1.2,78,50,32,28.88,28.61,15,3,15,0.00
2013-2-5,47.3,31.2,20.8,25.9,16.3,8.4,87,57,30,28.97,28.64,21,3,21,0.00
2013-2-6,46.9,35.3,21.7,24.2,19.2,15.5,88,56,30,28.97,28.76,13,3,13,0.00
2013-2-7,39.9,33.8,27.1,37.8,27.0,16.7,94,77,43,29.06,28.73,15,1,15,0.00
2013-2-8,31.8,26.9,23.2,17.5,13.5,9.5,66,57,41,29.21,29.06,0,0,0,0.00
2013-2-9,40.1,31.7,26.6,30.9,19.6,16.0,89,61,41,29.12,28.67,17,3,17,0.00
2013-2-10,53.2,38.9,31.8,49.5,28.0,8.5,96,70,27,28.67,28.14,27,7,27,0.00
2013-2-11,32.9,29.8,27.0,10.3,7.6,3.9,44,39,32,29.00,28.47,31,7,31,0.00
2013-2-12,46.4,32.0,17.8,20.5,9.9,5.7,79,42,22,29.00,28.73,14,3,14,0.00
2013-2-13,27.1,26.0,24.6,18.1,15.9,13.8,70,65,58,28.73,28.70,7,1,7,0.00
2013-2-23,34.9,24.4,18.0,9.6,5.7,2.3,67,46,27,28.79,28.73,9,1,9,0.00
2013-2-24,62.4,30.7,11.8,16.5,9.5,0.9,81,46,16,28.94,28.79,6,1,6,0.04
2013-2-25,46.9,34.9,25.9,22.4,15.3,7.0,78,47,22,28.94,28.76,10,3,10,0.00
2013-2-26,32.9,30.9,28.4,25.0,20.7,12.8,81,66,45,28.76,28.56,14,5,14,0.00
2013-2-27,33.1,28.3,24.4,20.7,14.6,10.2,75,57,42,28.85,28.64,19,5,19,0.00
2013-2-28,35.4,26.9,22.5,13.7,10.6,5.7,60,50,33,29.03,28.85,15,5,15,0.00
2013-3-1,36.3,27.0,23.9,15.1,8.2,0.6,66,46,30,29.18,29.00,10,4,10,0.00
2013-3-2,40.6,24.7,15.1,8.7,4.1,-2.3,68,42,23,29.18,29.03,14,2,14,0.00
2013-3-3,42.1,28.6,18.5,13.1,5.8,0.6,59,39,23,29.03,28.76,15,5,15,0.00
2013-3-4,45.5,33.4,28.0,26.4,17.3,11.4,80,53,28,28.82,28.64,15,6,15,0.00
2013-3-5,34.9,29.3,25.2,28.8,13.4,2.8,87,52,34,29.15,28.79,22,5,22,0.00
2013-3-6,43.0,25.7,15.8,11.3,7.5,0.6,76,48,23,29.26,29.15,17,3,17,0.00
2013-3-7,43.5,26.1,12.2,15.4,8.8,2.5,82,51,25,29.21,29.09,12,4,12,0.00
2013-3-8,48.0,35.0,22.5,31.5,16.1,9.5,82,49,27,29.12,28.88,13,5,13,0.08
2013-3-9,44.2,40.2,36.5,42.9,37.5,31.2,95,90,74,28.88,28.50,15,4,15,0.43
2013-3-10,42.1,36.6,31.5,40.8,34.8,27.6,95,93,86,28.64,28.50,14,4,14,0.24
2013-3-11,31.3,26.3,21.2,27.6,14.4,6.0,86,62,41,28.82,28.61,0,0,0,0.00
2013-3-12,35.1,25.6,18.1,15.8,9.0,3.9,76,50,34,29.12,28.79,0,0,0,0.00
2013-3-13,43.3,25.3,15.1,7.7,3.2,-1.0,58,40,21,29.29,29.12,8,1,8,0.00
2013-3-14,58.8,38.6,23.9,23.4,14.4,4.2,76,40,17,29.18,28.94,11,2,11,0.08
2013-3-15,70.3,43.1,27.9,35.5,26.9,20.0,94,60,17,28.94,28.59,13,2,13,0.00
2013-3-16,39.0,33.0,26.4,29.3,15.1,6.3,78,50,29,29.06,28.67,15,5,15,0.00
2013-3-17,44.2,31.6,20.3,16.5,8.8,1.7,55,39,25,29.06,28.70,16,6,16,0.00
2013-3-18,36.0,29.5,20.3,31.7,12.6,-1.8,88,53,30,28.85,28.59,27,5,27,0.00
2013-3-19,44.2,26.8,15.1,10.2,0.1,-8.2,52,32,21,29.12,28.85,22,4,22,0.00
2013-3-20,29.7,21.2,13.5,6.0,-4.0,-10.1,48,33,23,29.21,29.00,28,6,28,0.00
2013-3-21,46.0,24.6,7.0,6.6,-1.7,-9.9,48,33,20,29.00,28.82,11,3,11,0.00
2013-3-22,47.3,30.5,16.9,11.6,4.8,-2.2,61,36,20,28.94,28.85,9,3,9,0.00
2013-3-23,45.9,32.1,26.4,24.1,10.1,1.0,76,42,20,29.00,28.85,13,3,13,0.00
2013-3-24,32.4,29.2,26.4,23.3,17.7,9.5,79,63,41,28.88,28.76,15,5,15,0.00
2013-3-25,38.7,31.1,26.4,23.0,13.0,3.3,80,50,26,29.12,28.82,17,5,17,0.00
2013-3-26,50.2,30.2,21.0,13.4,7.1,1.5,61,39,19,29.21,29.12,13,3,13,0.00
2013-3-27,58.3,36.4,18.3,26.9,11.2,4.7,90,41,17,29.21,29.09,10,2,10,0.00
2013-3-28,65.8,43.9,25.5,25.5,16.5,8.9,85,39,15,29.15,29.06,11,3,11,0.00
2013-3-29,70.9,49.4,29.7,33.1,19.1,11.1,91,37,14,29.15,28.97,13,3,13,0.00
2013-3-30,70.7,50.5,43.7,45.9,32.9,16.7,91,55,23,28.97,28.73,11,3,11,0.08
2013-3-31,55.0,43.4,33.3,42.2,22.5,6.4,95,51,18,28.97,28.76,20,4,20,0.00
2013-4-1,45.1,30.4,21.4,9.1,3.6,-1.0,49,33,20,29.15,28.97,17,5,17,0.00
2013-4-2,56.1,34.8,16.2,27.1,8.5,2.6,88,39,17,29.21,29.15,15,2,15,0.00
2013-4-3,62.6,39.0,23.7,15.7,8.5,1.2,61,31,16,29.26,29.12,12,2,12,0.00
2013-4-4,71.6,48.1,25.9,22.3,12.3,2.0,43,25,14,29.12,28.88,14,3,14,0.00
2013-4-5,66.7,49.3,30.6,22.4,15.8,10.0,67,29,15,29.06,28.70,15,4,15,0.00
2013-4-6,76.3,58.6,47.7,31.3,24.2,19.6,50,27,15,28.70,28.41,23,6,23,0.00
2013-4-7,70.0,52.0,34.2,34.7,26.5,20.1,91,43,17,28.79,28.53,12,4,12,0.00
2013-4-8,85.6,64.7,47.5,59.6,38.0,24.4,95,47,13,28.64,28.47,12,2,12,0.04
2013-4-9,71.2,58.1,43.5,57.4,51.6,38.3,91,80,33,28.76,28.56,13,4,13,0.00
2013-4-10,43.7,40.7,39.2,41.2,37.7,32.0,93,89,75,28.82,28.59,21,5,21,0.87
2013-4-11,44.1,39.0,34.9,42.1,31.8,17.7,94,77,39,28.61,28.47,13,3,13,0.24
2013-4-12,41.4,36.1,33.4,32.3,18.2,9.7,87,50,30,28.82,28.50,19,5,19,0.00
2013-4-13,64.4,41.4,26.4,18.5,12.7,6.8,58,32,16,28.88,28.67,15,4,17,0.00
2013-4-14,70.3,52.8,41.5,52.4,33.1,18.1,89,51,23,28.67,28.29,27,5,27,0.12
2013-4-15,50.4,41.2,36.5,36.0,20.2,8.4,87,46,21,28.94,28.53,15,2,15,0.00
2013-4-16,59.4,42.2,27.5,27.4,16.4,11.7,81,38,19,29.09,28.91,17,4,17,0.00
2013-4-17,49.3,43.8,41.0,47.3,36.1,15.9,94,79,29,29.06,28.47,22,6,22,2.01
2013-4-18,44.4,38.3,33.6,42.5,30.0,16.7,93,74,45,28.61,28.41,25,6,25,0.35
2013-4-19,49.8,36.3,29.3,17.4,10.2,4.5,51,35,22,28.94,28.59,28,7,28,0.00
2013-4-20,61.7,40.9,23.7,17.0,9.8,2.6,67,31,16,29.15,28.94,11,3,11,0.00
2013-4-21,74.3,55.0,41.4,39.7,19.0,9.7,65,26,14,29.09,28.91,22,6,22,0.00
2013-4-22,77.0,54.2,36.5,49.8,37.4,19.9,93,63,15,29.03,28.79,14,3,17,0.35
2013-4-23,46.8,36.5,31.8,32.5,15.0,6.1,86,44,22,29.00,28.91,16,6,16,0.00
2013-4-24,61.9,43.9,23.5,22.8,12.9,3.6,80,32,16,29.03,28.88,16,4,16,0.00
2013-4-25,74.5,51.0,28.8,31.7,16.4,6.5,88,30,13,29.15,28.97,14,3,14,0.00
2013-4-26,73.0,58.3,47.7,35.1,25.0,17.7,61,29,16,29.06,28.94,22,6,22,0.00
2013-4-27,82.9,59.2,41.4,47.0,30.1,20.1,90,41,14,29.09,28.85,10,2,10,0.00
2013-4-28,86.2,63.9,42.4,53.6,32.1,23.1,94,40,13,28.88,28.61,14,3,14,0.00
2013-4-29,93.0,70.2,53.4,46.8,35.2,25.6,70,32,12,28.64,28.44,11,2,11,0.00
2013-4-30,91.6,75.5,59.0,47.4,29.7,21.0,50,20,12,28.73,28.44,22,7,22,0.00
2013-5-1,63.5,50.5,39.0,31.5,23.4,19.7,51,35,21,29.18,28.73,22,7,22,0.00
2013-5-2,39.9,35.1,33.8,33.8,31.9,23.3,93,88,51,29.29,29.15,21,6,21,1.30
2013-5-3,35.6,34.4,33.3,34.0,31.7,25.4,95,90,72,29.21,28.82,14,4,14,0.35
2013-5-4,51.6,41.9,34.3,43.4,38.1,30.4,94,87,49,28.94,28.76,13,3,13,0.47
2013-5-5,65.3,51.6,45.3,44.1,39.5,28.0,93,67,31,28.97,28.91,12,3,12,0.00
2013-5-6,87.3,61.8,46.2,46.3,34.5,23.1,87,45,13,28.97,28.88,10,2,10,0.00
2013-5-7,94.8,76.6,52.7,40.6,28.3,18.5,63,19,11,28.94,28.82,10,2,10,0.00
2013-5-8,82.6,61.8,49.5,57.4,42.4,24.4,88,56,14,28.88,28.79,10,1,10,0.00
2013-5-9,78.8,61.7,54.0,59.8,46.4,30.9,92,62,20,28.82,28.70,13,2,13,0.00
2013-5-10,81.7,57.4,48.7,42.2,33.7,21.7,76,46,14,28.91,28.79,13,4,13,0.00
2013-5-11,63.3,52.7,39.0,40.8,17.8,2.7,77,29,16,29.09,28.82,27,5,27,0.00
2013-5-12,74.1,50.9,33.8,20.6,12.3,4.8,40,22,13,29.12,29.00,15,2,15,0.00
2013-5-13,86.9,63.6,35.6,33.3,22.0,11.0,56,23,11,29.00,28.70,15,3,15,0.00
2013-5-14,105.3,83.0,59.4,43.2,33.3,25.7,53,20,9,28.70,28.50,17,4,17,0.00
2013-5-15,94.6,75.8,61.0,33.0,25.7,18.4,26,16,11,28.79,28.61,14,2,14,0.00
2013-5-16,66.6,63.3,59.5,32.7,27.8,25.8,35,26,22,28.76,28.73,4,0,4,0.00
2013-5-17,86.4,72.0,64.0,47.6,40.1,31.4,55,34,16,28.82,28.73,9,1,9,0.00
2013-5-18,97.2,75.5,58.5,59.7,43.4,30.3,88,41,11,28.82,28.64,15,2,15,0.00
2013-5-19,98.4,75.6,60.6,60.3,44.7,28.2,92,42,11,28.67,28.41,24,4,24,0.00
2013-5-20,92.5,70.0,59.7,66.3,47.3,28.0,92,57,12,28.56,28.44,17,4,17,0.00
2013-5-21,81.1,65.6,55.2,60.0,36.6,20.7,93,44,14,28.56,28.44,13,2,13,0.00
2013-5-22,70.3,58.1,53.1,51.4,39.2,31.5,81,51,26,28.76,28.53,15,2,15,0.00
2013-5-23,84.2,63.3,52.0,48.1,32.7,18.1,86,40,12,29.12,28.76,13,3,13,0.00
2013-5-24,83.7,63.8,43.7,36.5,27.1,20.1,69,28,14,29.23,29.00,14,3,14,0.00
2013-5-25,59.2,54.1,51.6,51.0,42.6,26.0,91,70,28,29.09,29.00,10,3,10,0.00
2013-5-30,81.9,69.6,61.9,67.6,45.9,35.6,84,46,21,28.56,28.44,11,3,11,0.00
2013-5-31,88.5,72.4,59.2,67.5,44.9,34.1,91,45,16,28.59,28.53,15,3,15,0.00
2013-6-1,81.0,64.5,53.1,56.9,39.4,24.1,80,43,18,28.82,28.50,17,3,17,0.00
2013-6-2,83.8,61.5,47.5,36.0,27.6,18.5,63,31,14,28.94,28.79,15,3,15,0.00
2013-6-3,86.9,66.4,43.9,57.5,31.7,21.0,93,37,11,28.94,28.79,10,2,10,0.00
2013-6-4,74.1,62.0,54.5,58.4,46.1,34.4,92,60,26,28.91,28.82,10,2,10,0.00
2013-6-5,84.4,66.3,54.5,63.1,47.1,27.8,92,58,16,28.88,28.79,9,1,9,0.00
2013-6-6,54.3,51.2,49.8,46.5,41.7,35.9,81,70,50,28.85,28.79,3,0,3,0.00
2013-6-11,79.2,74.7,71.2,63.8,59.9,54.4,77,61,43,28.70,28.64,9,0,9,0.00
2013-6-12,104.2,75.7,65.1,66.5,50.0,33.7,83,47,9,28.76,28.59,22,3,22,0.08
2013-6-13,97.0,75.6,59.4,48.8,35.5,26.7,65,28,11,28.94,28.76,15,2,16,0.00
2013-6-14,91.2,68.2,61.9,65.1,49.8,31.8,91,57,18,28.94,28.73,14,2,14,0.00
2013-6-15,100.0,74.6,63.5,70.6,53.5,35.8,92,57,13,28.91,28.73,12,1,12,0.00
2013-6-16,107.1,80.7,64.9,60.5,43.0,21.5,80,37,9,28.85,28.79,9,1,9,0.00
2013-6-17,101.8,79.7,59.0,69.3,38.9,24.4,90,33,10,28.85,28.76,12,2,12,0.00
2013-6-18,102.2,79.2,59.2,47.9,34.9,27.0,57,24,9,28.88,28.82,10,1,10,0.39
2013-6-19,97.5,77.9,63.0,60.2,44.3,29.8,89,40,11,28.94,28.85,10,1,10,0.00
2013-6-20,99.7,82.2,64.9,53.5,42.4,31.0,65,30,10,28.88,28.79,16,2,16,0.00
2013-6-21,100.9,81.5,73.8,69.7,52.6,44.3,84,39,16,28.85,28.73,14,3,14,0.04
2013-6-22,103.8,86.9,74.1,58.9,46.7,32.7,54,29,10,28.88,28.73,13,2,13,0.00
2013-6-23,93.7,77.2,65.1,71.5,53.9,35.6,91,52,14,28.85,28.70,13,2,13,0.08
2013-6-24,94.1,73.6,66.2,75.1,60.9,39.8,92,71,19,28.85,28.70,11,1,11,0.00
2013-6-25,103.3,81.5,69.4,72.3,56.2,33.5,90,52,12,28.70,28.59,11,1,11,0.00
2013-6-26,103.1,85.5,71.2,68.0,48.9,29.6,77,36,10,28.73,28.53,17,2,17,0.00
2013-6-27,97.5,79.4,64.6,71.0,46.3,31.4,90,37,11,28.82,28.73,9,1,15,0.00
2013-6-28,95.4,80.1,68.4,47.5,35.1,27.0,45,22,11,28.76,28.64,24,5,24,0.00
2013-6-29,86.2,72.6,64.0,54.6,37.1,27.3,65,29,13,28.79,28.64,18,5,18,0.00
2013-6-30,90.0,71.5,58.1,49.1,34.4,20.7,71,30,11,28.97,28.79,11,2,11,0.00
2013-7-1,93.6,74.4,56.3,39.4,32.2,19.8,52,25,12,29.00,28.94,15,2,15,0.00
2013-7-2,97.9,71.0,53.8,79.0,42.1,24.6,87,44,11,29.00,28.91,11,1,11,0.00
2013-7-3,97.5,74.5,55.6,63.8,42.7,26.9,93,46,11,28.94,28.85,8,1,8,0.00
2013-7-4,100.0,79.1,58.3,62.8,40.7,27.5,91,36,10,28.91,28.82,10,1,10,0.00
2013-7-5,100.8,80.9,60.4,52.5,37.9,28.5,66,27,10,28.85,28.79,14,2,14,0.00
2013-7-6,102.9,84.2,65.8,48.7,40.0,31.1,51,26,9,28.82,28.73,13,2,13,0.00
2013-7-7,103.5,84.8,68.9,59.4,44.1,31.0,54,29,9,28.79,28.73,13,2,13,0.00
2013-7-8,102.7,83.9,73.2,67.1,50.9,37.9,78,36,12,28.85,28.79,8,1,8,0.00
2013-7-9,109.6,85.5,72.3,74.1,57.6,40.2,87,50,10,28.85,28.73,10,1,10,0.24
2013-7-10,98.2,80.6,62.2,57.1,39.1,24.4,55,27,11,28.94,28.79,13,2,13,0.00
2013-7-11,62.4,60.0,58.1,51.8,48.2,43.2,78,65,51,28.97,28.91,0,0,0,0.00
2013-7-12,100.4,86.2,69.6,43.0,36.4,30.3,34,20,10,28.91,28.85,14,2,14,0.00
2013-7-13,69.8,66.2,64.4,46.3,39.7,36.8,44,38,33,28.94,28.88,9,0,9,0.00
2013-7-14,100.9,80.8,62.6,60.0,41.1,30.3,80,31,10,29.06,28.94,10,1,10,0.00
2013-7-15,104.2,82.4,64.9,59.8,47.9,37.9,79,36,12,29.09,29.00,10,1,10,0.00
2013-7-16,109.0,88.1,70.2,66.7,47.7,32.7,83,34,8,29.12,29.06,7,1,7,0.00
2013-7-17,111.9,89.3,70.5,69.7,47.8,32.8,85,34,7,29.18,29.06,6,0,8,0.00
2013-7-18,106.2,89.1,72.1,66.1,45.8,32.2,75,32,9,29.06,28.82,12,2,12,0.00
2013-7-19,106.9,87.8,72.5,51.5,41.9,31.2,43,24,9,28.82,28.70,8,2,11,0.00
2013-7-20,107.8,82.4,60.4,60.4,40.2,28.1,84,30,9,28.85,28.73,8,0,8,0.00
2013-7-21,94.8,73.5,63.1,68.4,53.0,38.8,86,54,17,28.79,28.67,12,0,12,0.08
2013-7-22,106.9,83.7,63.9,69.7,50.0,32.8,91,47,9,28.79,28.61,20,2,20,0.00
2013-7-23,93.4,71.9,61.9,65.8,45.3,28.6,92,48,12,28.88,28.70,19,1,19,0.00
2013-7-24,98.4,74.2,56.3,61.3,39.0,27.0,92,38,11,28.94,28.85,10,1,10,0.00
2013-7-25,99.3,77.4,58.6,61.3,43.0,30.3,87,38,10,28.94,28.82,11,2,11,0.00
2013-7-26,85.5,72.3,59.4,70.1,42.6,23.9,92,43,13,28.94,28.82,17,3,17,0.00
2013-7-27,81.7,64.0,51.1,54.4,30.9,17.4,92,36,12,28.97,28.85,16,2,16,0.00
2013-7-28,89.2,66.4,49.5,39.8,29.7,19.6,64,30,11,28.94,28.85,13,2,13,0.00
2013-7-29,81.9,67.4,52.2,59.9,39.2,26.1,93,43,15,29.00,28.94,10,1,10,0.00
2013-7-30,75.9,68.0,63.0,69.4,57.9,44.9,92,73,35,28.97,28.91,7,0,7,0.00
2013-7-31,98.6,76.2,63.1,62.4,46.9,30.5,88,45,10,29.00,28.88,10,1,10,0.00
2013-8-1,104.9,79.0,59.5,63.7,43.9,28.6,91,40,9,28.97,28.79,8,0,8,0.00
2013-8-2,99.3,75.6,64.0,58.8,44.6,30.6,72,40,11,28.88,28.76,13,1,13,0.00
2013-8-3,93.2,74.7,60.3,50.8,35.8,25.3,65,29,12,29.06,28.88,8,1,8,0.00
2013-8-4,97.9,75.1,55.2,62.7,38.5,27.0,91,36,11,29.06,28.91,9,1,9,0.00
2013-8-5,97.2,75.2,63.0,62.1,49.8,39.6,79,44,17,28.91,28.70,10,1,10,0.00
2013-8-6,107.1,79.9,66.6,76.0,53.6,32.8,90,51,9,28.79,28.64,7,1,7,0.00
2013-8-7,93.4,76.6,66.9,65.7,46.3,32.3,88,41,14,28.88,28.67,11,2,11,0.00
2013-8-8,93.0,74.6,56.8,54.1,40.3,28.1,77,36,12,28.91,28.85,7,1,7,0.00
2013-8-9,91.6,74.3,61.2,59.3,42.7,26.1,78,38,12,29.00,28.88,14,1,14,0.00
2013-8-10,101.8,75.7,55.9,62.8,40.3,27.3,91,38,10,29.09,28.97,8,0,8,0.00
2013-8-11,100.9,79.3,61.3,52.8,39.5,30.3,65,29,10,29.00,28.85,8,1,8,0.00
2013-8-12,93.6,74.8,64.6,67.4,47.1,26.9,92,49,11,28.94,28.85,13,2,13,0.00
2013-8-13,90.3,70.8,56.7,55.4,37.5,26.0,88,37,12,29.06,28.94,9,2,10,1.46
2013-8-14,94.1,70.1,52.0,54.6,33.3,23.1,84,31,11,29.09,29.00,8,0,8,0.00
2013-8-15,89.2,66.3,56.5,44.8,35.7,25.9,63,35,13,29.03,28.97,12,1,12,0.00
2013-8-16,95.9,69.2,52.3,55.5,37.7,24.4,91,42,11,29.06,29.00,8,1,8,0.00
2013-8-17,98.6,71.9,53.6,60.7,38.4,25.7,90,40,10,29.09,29.00,8,1,8,0.00
2013-8-18,98.6,73.1,55.0,56.5,39.0,27.3,85,37,11,29.06,28.94,9,1,9,0.00
2013-8-19,95.7,73.8,58.1,58.5,45.8,31.0,87,45,11,28.97,28.85,10,1,10,0.00
2013-8-20,100.0,80.2,67.6,51.7,44.5,32.7,52,32,10,28.88,28.79,17,2,17,0.00
2013-8-21,102.7,83.1,69.8,56.3,44.7,32.2,60,31,9,28.88,28.82,11,2,11,0.00
2013-8-22,91.9,76.7,68.4,62.1,51.5,40.2,80,44,17,28.97,28.85,11,0,11,0.00
2013-8-23,100.9,79.3,66.9,68.9,54.7,42.1,91,52,15,29.00,28.91,9,1,9,0.00
2013-8-24,103.8,82.9,69.3,63.3,49.8,38.0,78,38,12,29.00,28.91,13,2,13,0.00
2013-8-25,106.0,84.9,71.1,52.7,44.5,31.1,51,28,9,29.03,28.94,11,3,11,0.00
2013-8-26,108.7,86.8,70.5,64.0,46.6,31.4,72,31,8,29.00,28.85,12,2,12,0.00
2013-8-27,107.2,87.3,74.8,54.2,45.6,32.7,48,27,9,28.85,28.76,12,4,12,0.00
2013-8-28,110.3,85.5,70.7,52.9,42.5,31.0,51,27,8,28.88,28.79,8,1,8,0.00
2013-8-29,108.7,84.9,68.5,65.5,50.3,32.8,83,38,8,28.91,28.79,10,1,10,0.00
2013-8-30,114.1,88.8,70.7,69.7,50.3,32.7,82,38,7,28.79,28.67,10,1,12,0.00
2013-8-31,104.7,80.8,67.8,65.2,47.1,30.3,87,39,9,28.73,28.64,10,1,10,0.00
2013-9-1,89.6,73.2,64.0,65.0,50.4,28.1,91,52,13,28.85,28.61,18,3,18,0.00
2013-9-2,93.0,68.0,55.9,55.2,38.6,23.2,91,42,12,28.94,28.85,10,2,10,0.00
2013-9-3,94.3,68.7,50.2,59.9,39.3,27.0,92,44,11,29.00,28.91,8,0,8,0.00
2013-9-4,102.4,76.7,57.4,66.2,42.2,30.3,89,40,9,29.03,28.91,9,0,9,0.00
2013-9-5,103.1,79.9,67.3,62.6,46.3,31.0,70,39,9,29.06,28.97,8,0,8,0.00
2013-9-6,102.9,79.9,63.3,61.5,43.5,29.1,88,39,9,29.00,28.82,11,1,11,0.00
2013-9-7,107.1,83.1,71.1,61.0,44.6,32.7,62,29,9,28.82,28.73,9,1,9,0.00
2013-9-8,96.3,80.2,69.4,66.8,55.5,42.0,88,48,17,28.82,28.70,10,2,10,0.00
2013-9-9,108.7,85.4,69.1,68.1,45.9,30.3,86,37,8,28.76,28.67,15,2,15,0.00
2013-9-10,105.3,85.2,71.2,50.9,38.5,30.3,43,22,9,28.88,28.76,13,3,14,0.00
2013-9-11,93.0,78.8,69.4,61.3,47.8,37.8,70,37,17,28.97,28.85,9,1,9,0.00
2013-9-12,89.2,69.1,58.1,51.9,34.7,19.8,59,32,11,29.06,28.94,14,1,14,0.00
2013-9-13,87.1,62.8,48.7,44.3,30.3,19.8,76,35,13,29.12,28.97,9,1,9,0.00
2013-9-14,89.1,64.3,43.9,46.5,27.1,17.9,73,31,12,29.00,28.79,10,1,10,0.00
2013-9-15,74.8,65.9,57.0,59.6,38.9,26.3,76,39,22,29.09,28.73,14,3,14,0.00
2013-9-16,70.7,59.0,52.9,54.2,41.7,30.2,92,57,23,29.23,29.09,12,1,12,0.00
2013-9-17,65.8,59.7,54.1,61.7,54.0,43.0,93,82,62,29.12,28.85,9,1,9,0.28
2013-9-18,98.6,78.0,64.4,63.6,51.0,38.5,87,48,13,28.85,28.61,12,2,16,0.00
2013-9-19,96.4,74.7,62.2,64.3,54.6,39.6,92,57,16,28.76,28.59,19,3,30,0.00
2013-9-20,72.9,60.8,51.3,60.4,35.7,25.5,93,42,21,28.88,28.76,17,3,17,0.87
2013-9-21,85.5,57.2,41.4,56.0,31.4,18.5,94,47,12,28.91,28.76,10,0,10,0.00
2013-9-22,89.6,64.1,47.7,44.6,36.1,25.3,82,44,13,28.85,28.73,10,1,10,0.00
2013-9-23,88.7,64.4,49.8,45.7,34.4,23.1,84,40,13,28.82,28.70,15,2,15,0.00
2013-9-24,78.3,65.0,55.4,45.6,38.2,30.3,58,39,20,28.76,28.70,8,1,8,0.00
2013-9-25,92.3,67.0,52.2,50.9,40.8,27.2,86,45,12,28.82,28.70,7,1,7,0.00
2013-9-26,93.6,71.4,58.5,58.1,45.1,31.6,92,48,12,28.82,28.73,14,2,14,0.00
2013-9-27,95.4,74.8,64.2,56.1,44.4,30.6,73,40,11,28.85,28.73,15,2,15,0.00
2013-9-28,69.4,61.0,47.3,66.1,48.1,32.5,89,65,32,28.91,28.67,14,2,14,0.04
2013-9-29,87.8,59.9,41.7,65.2,33.9,19.6,94,49,10,28.94,28.79,13,1,13,0.04
2013-9-30,85.5,62.8,46.4,55.0,35.3,23.1,93,45,13,28.79,28.61,12,2,12,0.00
2013-10-1,94.3,68.7,54.9,63.1,39.6,26.0,92,43,11,28.85,28.67,8,1,8,0.00
2013-10-2,95.7,71.5,56.8,51.7,37.6,24.4,59,32,13,28.88,28.73,10,1,10,0.00
2013-10-3,86.4,71.0,64.6,79.3,56.7,37.5,93,67,18,28.73,28.64,9,1,9,0.00
2013-10-4,78.4,69.0,62.1,72.2,61.0,41.9,93,78,34,28.76,28.61,13,2,13,0.00
2013-10-5,71.6,55.3,46.6,44.5,22.9,13.5,46,29,14,28.79,28.64,13,2,13,0.00
2013-10-6,50.2,46.5,41.5,47.1,32.5,16.4,93,61,29,28.79,28.61,13,2,14,0.20
2013-10-7,82.9,56.4,38.7,46.6,29.9,17.4,89,46,11,28.91,28.79,9,1,9,0.00
2013-10-8,85.3,61.1,43.7,49.5,31.3,20.3,83,41,11,28.94,28.85,17,2,17,0.00
2013-10-9,87.4,61.7,47.8,50.7,32.5,22.5,87,40,13,28.97,28.88,12,1,12,0.00
2013-10-10,90.0,61.1,44.8,49.2,33.3,23.1,90,42,12,28.94,28.76,11,1,11,0.00
2013-10-11,81.7,64.7,53.4,57.4,46.1,33.1,83,55,19,28.76,28.61,13,2,13,0.00
2013-10-12,75.0,55.6,39.7,45.2,23.6,11.3,66,32,13,29.12,28.70,15,2,15,0.00
2013-10-13,80.6,50.8,33.8,40.1,22.9,13.4,85,40,12,29.29,29.12,6,0,6,0.00
2013-10-14,72.5,54.1,38.1,33.5,23.4,14.4,70,35,14,29.21,28.67,15,2,15,0.00
2013-10-15,59.7,52.3,45.9,57.7,36.1,21.0,95,59,26,28.82,28.64,14,3,14,0.24
2013-10-16,53.4,45.8,36.1,36.7,30.1,22.0,83,56,37,28.88,28.82,13,2,13,0.00
2013-10-17,73.2,48.4,33.1,53.2,28.3,12.4,96,56,14,28.85,28.70,15,2,15,0.00
2013-10-18,54.5,43.4,35.4,37.8,20.5,9.2,90,45,18,28.94,28.85,13,2,13,0.00
2013-10-19,63.3,45.8,32.5,34.1,17.9,7.7,83,36,16,28.85,28.67,14,2,14,0.00
2013-10-20,67.3,49.5,35.4,31.2,23.8,16.4,78,40,17,28.82,28.59,15,1,15,0.00
2013-10-21,55.8,42.2,33.8,24.8,15.0,4.7,63,36,17,28.94,28.82,16,2,16,0.00
2013-10-22,46.8,39.6,34.0,32.1,25.3,13.1,79,57,36,28.94,28.73,9,2,11,0.00
2013-10-23,47.7,36.6,27.9,34.8,23.6,10.8,91,63,24,29.03,28.91,10,1,10,0.04
2013-10-24,46.9,36.0,28.4,25.2,16.5,9.6,76,48,24,29.23,29.03,10,2,14,0.00
2013-10-25,60.4,41.2,21.9,36.8,15.1,8.8,93,44,17,29.26,28.91,14,4,14,0.00
2013-10-26,54.3,43.6,28.6,20.3,13.2,6.4,58,30,18,29.03,28.82,17,4,17,0.00
2013-10-27,70.5,43.0,23.9,37.4,18.0,11.0,90,46,14,29.00,28.73,13,2,13,0.00
2013-10-28,60.6,44.1,34.2,30.5,21.5,15.2,79,44,19,29.15,28.85,13,4,13,0.00
2013-10-29,59.7,47.9,38.7,44.8,29.8,21.4,82,51,28,29.12,28.85,11,3,11,0.00
2013-10-30,62.6,56.9,52.3,59.8,52.8,44.7,94,87,61,28.88,28.53,12,1,12,0.00
2013-10-31,53.2,45.7,41.7,50.8,36.0,24.2,95,72,40,28.56,28.35,11,2,11,0.00
2013-11-1,59.0,46.9,38.5,33.5,24.5,15.2,70,44,19,28.76,28.41,15,2,15,0.00
2013-11-2,56.8,44.6,33.3,30.5,23.3,11.1,80,47,18,29.00,28.73,14,2,14,0.00
2013-11-3,64.2,45.0,30.4,35.4,21.1,11.3,91,48,16,29.00,28.76,19,3,19,0.00
2013-11-4,58.1,50.0,44.4,45.4,30.3,19.5,91,49,30,29.03,28.76,17,3,17,0.00
2013-11-5,58.6,49.8,43.5,56.7,41.2,25.3,95,75,43,29.03,28.64,15,3,15,0.00
2013-11-6,46.8,36.4,25.5,41.8,21.0,7.0,96,59,22,29.12,28.73,17,4,17,0.00
2013-11-7,51.3,33.2,24.4,29.3,16.9,2.4,89,56,22,29.18,29.09,18,2,18,0.00
2013-11-8,62.6,43.4,23.5,23.5,15.9,9.5,78,39,16,29.15,28.64,24,4,24,0.00
2013-11-9,60.6,47.4,36.9,23.8,18.4,13.2,50,33,19,29.18,28.70,16,3,16,0.00
2013-11-10,52.0,40.4,23.7,24.3,13.0,6.5,78,35,21,29.29,29.03,11,3,11,0.00
2013-11-11,48.4,32.7,15.4,25.3,11.0,-3.3,57,41,24,29.56,28.94,17,5,17,0.00
2013-11-12,38.1,17.9,8.4,7.3,-1.7,-6.6,64,44,21,29.71,29.41,11,2,11,0.04
2013-11-13,52.7,33.9,13.5,10.6,2.6,-3.7,56,28,18,29.41,28.91,18,6,18,0.00
2013-11-14,56.5,42.2,34.9,16.4,7.8,1.0,45,25,17,28.91,28.73,16,4,16,0.00
2013-11-15,65.5,42.2,25.9,30.0,19.1,13.4,79,44,16,28.79,28.59,15,3,15,0.00
2013-11-16,69.1,55.5,42.4,44.4,36.4,23.8,67,50,32,28.59,28.20,17,5,17,0.00
2013-11-17,57.2,47.0,38.5,48.2,32.5,21.9,90,59,34,28.85,28.14,22,3,22,0.00
2013-11-18,48.9,37.0,28.2,27.1,19.5,12.0,83,52,27,29.12,28.85,17,3,17,0.00
2013-11-19,62.8,42.2,27.1,27.6,16.5,8.5,90,43,16,29.12,28.88,18,4,18,0.00
2013-11-20,46.4,40.3,33.6,33.8,22.4,6.8,95,53,20,28.88,28.73,15,4,15,0.00
2013-11-21,40.1,31.6,23.5,39.0,27.4,15.9,97,85,65,29.29,28.85,14,3,14,0.00
2013-11-22,25.2,18.6,11.1,17.4,3.9,-3.2,77,53,32,29.50,29.29,14,3,14,0.00
2013-11-23,22.8,11.8,1.9,-1.1,-10.3,-21.7,47,36,27,29.68,29.44,13,3,13,0.08
2013-11-24,33.3,15.6,0.3,4.6,-10.5,-23.2,64,30,23,29.59,29.09,15,4,15,0.00
2013-11-25,41.5,30.2,25.0,20.9,8.1,-5.1,76,41,26,29.12,28.94,16,4,16,0.00
2013-11-26,30.4,24.1,14.9,19.8,1.6,-9.0,79,40,23,29.21,29.00,24,5,24,0.00
2013-11-27,35.6,19.5,7.2,0.2,-4.9,-10.3,44,34,22,29.26,28.91,12,3,12,0.00
2013-11-28,34.3,23.8,14.4,9.2,2.0,-2.8,63,40,25,29.35,28.88,20,3,20,0.00
2013-11-29,44.2,26.2,9.9,13.1,6.1,0.6,75,46,20,29.35,29.06,15,3,15,0.00
2013-11-30,56.3,37.5,26.1,29.0,16.0,10.2,79,45,20,29.06,28.91,11,2,11,0.00
2013-12-1,46.6,34.6,23.9,23.4,15.6,9.3,82,48,24,29.03,28.76,6,1,6,0.00
2013-12-2,55.8,39.0,29.5,30.8,22.3,18.3,80,53,26,28.76,28.41,13,2,13,0.00
2013-12-3,44.6,38.5,33.6,39.3,34.3,27.9,95,85,54,28.53,28.41,8,1,8,0.00
2013-12-4,40.3,31.2,17.2,39.2,24.1,-2.9,96,77,40,28.82,28.38,18,1,18,0.00
2013-12-5,18.1,12.3,6.1,-0.6,-9.6,-16.4,44,36,30,29.26,28.79,0,0,0,0.00
2013-12-6,13.6,5.9,-0.2,-9.5,-16.4,-22.0,34,34,34,29.53,29.23,0,0,0,0.00
2013-12-7,17.4,5.4,-5.8,-9.8,-20.2,-27.2,34,29,23,29.59,29.35,9,2,9,0.00
2013-12-8,21.2,14.8,10.8,7.3,-5.1,-18.9,66,43,24,29.35,28.85,11,4,11,0.00
2013-12-9,14.4,3.8,-3.8,3.4,-6.3,-13.6,62,62,61,29.15,28.91,17,4,17,0.00
2013-12-10,27.3,17.2,2.1,3.2,-4.1,-11.4,62,40,24,29.06,28.85,21,4,21,0.00
2013-12-11,24.4,6.8,-2.6,16.1,-8.5,-17.8,70,49,38,29.47,29.06,15,3,15,0.00
2013-12-12,36.0,16.2,-0.6,5.6,-4.0,-16.0,65,42,22,29.32,28.97,13,3,13,0.00
2013-12-13,33.6,22.7,12.0,12.7,8.7,3.4,78,57,33,28.97,28.79,13,2,13,0.00
2013-12-14,24.8,19.4,11.8,12.7,5.2,-2.8,72,54,39,29.00,28.88,16,4,16,0.00
2013-12-15,24.4,15.4,9.5,-0.7,-4.0,-8.8,51,42,24,29.00,28.88,11,2,11,0.00
2013-12-16,31.5,21.2,11.7,14.4,6.3,-3.0,64,52,42,28.97,28.82,8,3,11,0.00
2013-12-17,38.5,27.7,16.2,22.5,7.6,-2.6,80,46,21,29.06,28.94,17,3,21,0.00
2013-12-18,50.7,33.1,14.9,25.4,11.2,0.5,79,43,21,29.03,28.59,17,3,17,0.00
2013-12-19,39.6,31.8,26.4,28.2,21.6,13.7,90,69,36,28.70,28.59,11,3,13,0.00
2013-12-20,27.3,23.1,19.8,21.5,16.3,10.1,81,75,66,28.76,28.64,11,3,11,0.00
2013-12-21,24.6,21.8,18.9,19.2,11.3,4.7,80,64,46,28.76,28.61,11,2,11,0.00
2013-12-22,24.6,17.4,4.1,19.3,3.6,-12.9,80,55,37,29.18,28.61,17,5,17,0.00
2013-12-23,8.6,0.9,-9.0,-9.2,-15.5,-24.8,45,45,45,29.41,29.18,20,4,20,0.00
2013-12-24,16.9,2.3,-15.5,5.8,-13.9,-30.9,61,46,39,29.38,29.03,16,3,16,0.00
2013-12-25,35.6,24.8,15.1,17.5,9.1,0.8,75,52,33,29.12,29.00,20,3,20,0.00
2013-12-26,42.1,28.3,15.3,18.6,9.9,2.7,72,48,23,29.09,28.94,11,2,11,0.00
2013-12-27,51.8,33.5,15.4,27.5,12.6,7.7,85,47,19,29.09,28.91,17,3,17,0.00
2013-12-28,53.8,39.2,24.6,22.0,13.8,8.9,62,37,20,28.94,28.64,22,5,22,0.00
2013-12-29,24.3,7.6,-3.6,9.4,-7.9,-18.4,54,48,47,29.18,28.82,26,6,26,0.00
2013-12-30,19.8,7.6,-5.1,4.2,-7.9,-19.7,62,49,28,29.18,28.94,10,2,10,0.00
2013-12-31,19.0,9.8,3.9,3.2,-6.8,-13.3,62,48,33,29.15,29.00,16,4,16,0.00
2014-1-1,11.7,7.5,3.9,-9.0,-12.8,-16.0,38,38,38,29.21,29.03,10,5,11,0.00
2014-1-2,10.4,1.8,-8.5,-10.7,-18.0,-27.4,38,38,38,29.32,29.18,11,3,11,0.00